Precipitable_Water
0.36 0.42 0.51 0.55 0.30 0.25 0.20 0.22 0.28 0.23 0.24 0.29 0.30 0.27 0.25 0.27 0.23 0.18 0.52 0.65 0.73 0.81 0.97 1.07 1.13 1.22 1.27 1.31 1.32 1.33 1.37 1.36 1.37 1.38 1.34 1.34 1.32 1.33 1.32 1.32 1.21 1.13 1.10 1.09 1.09 1.07 1.00 1.02 1.00
0.38 0.47 0.53 0.40 0.22 0.17 0.18 0.24 0.21 0.23 0.28 0.29 0.29 0.28 0.26 0.23 0.34 0.37 0.45 0.62 0.74 0.86 0.93 1.07 1.10 1.14 1.20 1.21 1.22 1.22 1.21 1.21 1.23 1.21 1.20 1.17 1.15 1.16 1.19 1.13 1.08 1.06 1.06 1.03 1.02 0.98 0.97 0.98 0.97
0.41 0.47 0.34 0.26 0.19 0.15 0.16 0.21 0.21 0.25 0.28 0.25 0.22 0.30 0.26 0.24 0.34 0.38 0.53 0.58 0.72 0.83 0.92 1.01 1.11 1.15 1.16 1.16 1.14 1.11 1.11 1.12 1.12 1.11 1.12 1.13 1.12 1.11 1.06 1.05 1.05 1.02 1.00 0.99 0.95 0.89 0.87 0.84 0.82
0.41 0.38 0.32 0.18 0.15 0.16 0.16 0.17 0.20 0.22 0.26 0.27 0.24 0.23 0.29 0.35 0.34 0.40 0.49 0.54 0.63 0.77 0.90 0.94 1.06 1.13 1.16 1.16 1.15 1.13 1.11 1.09 1.05 1.07 1.10 1.07 1.04 1.01 0.99 1.01 0.99 0.93 0.94 0.95 0.93 0.87 0.78 0.68 0.61
0.40 0.30 0.19 0.17 0.17 0.18 0.21 0.20 0.21 0.21 0.24 0.25 0.27 0.21 0.21 0.34 0.45 0.45 0.47 0.52 0.56 0.70 0.84 0.91 0.99 1.07 1.13 1.16 1.17 1.14 1.13 1.12 1.08 1.11 1.06 1.06 1.03 0.99 0.98 0.97 0.93 0.93 0.91 0.89 0.87 0.81 0.71 0.59 0.47
0.25 0.23 0.15 0.14 0.16 0.19 0.23 0.22 0.23 0.22 0.24 0.25 0.25 0.25 0.24 0.38 0.39 0.43 0.51 0.52 0.60 0.66 0.77 0.87 0.95 1.02 1.08 1.12 1.14 1.14 1.10 1.07 1.05 1.12 1.13 1.13 1.07 1.02 0.98 0.94 0.86 0.88 0.86 0.83 0.82 0.74 0.61 0.46 0.38
0.21 0.17 0.13 0.14 0.15 0.18 0.22 0.26 0.21 0.20 0.21 0.22 0.26 0.20 0.26 0.35 0.39 0.46 0.52 0.55 0.56 0.67 0.76 0.85 0.94 0.99 1.04 1.08 1.11 1.12 1.09 1.07 1.08 1.07 1.07 1.08 1.07 1.04 1.02 0.93 0.84 0.81 0.81 0.78 0.74 0.63 0.48 0.41 0.35
0.25 0.19 0.13 0.16 0.16 0.17 0.25 0.24 0.25 0.23 0.21 0.29 0.27 0.19 0.22 0.33 0.42 0.46 0.52 0.55 0.57 0.60 0.71 0.78 0.87 0.95 0.98 1.02 1.05 1.08 1.10 1.08 1.05 1.05 1.07 1.11 1.08 1.00 0.97 0.92 0.85 0.76 0.75 0.71 0.65 0.54 0.46 0.41 0.35
0.28 0.13 0.10 0.16 0.17 0.20 0.26 0.23 0.29 0.30 0.25 0.25 0.26 0.24 0.27 0.35 0.43 0.45 0.44 0.47 0.50 0.56 0.62 0.73 0.80 0.88 0.96 1.00 1.03 1.02 1.05 1.06 1.07 1.04 1.06 1.10 1.11 1.05 1.00 0.96 0.87 0.79 0.71 0.68 0.61 0.53 0.48 0.42 0.35
0.20 0.14 0.13 0.22 0.26 0.24 0.27 0.28 0.30 0.28 0.26 0.23 0.25 0.28 0.31 0.37 0.38 0.36 0.37 0.36 0.41 0.46 0.53 0.64 0.73 0.80 0.89 0.95 1.00 0.98 1.04 1.05 1.06 1.03 1.04 1.08 1.08 1.04 1.00 1.01 0.95 0.85 0.70 0.66 0.59 0.55 0.49 0.39 0.33
0.25 0.16 0.21 0.23 0.26 0.28 0.25 0.26 0.30 0.27 0.25 0.30 0.30 0.31 0.32 0.34 0.35 0.35 0.35 0.36 0.37 0.42 0.50 0.59 0.63 0.72 0.79 0.83 0.89 0.98 1.02 1.02 1.03 1.02 1.01 1.02 1.06 1.03 0.99 1.00 0.96 0.89 0.74 0.66 0.59 0.53 0.46 0.32 0.31
0.22 0.27 0.28 0.27 0.31 0.32 0.31 0.35 0.32 0.34 0.32 0.37 0.38 0.38 0.37 0.36 0.35 0.35 0.34 0.35 0.38 0.43 0.48 0.57 0.65 0.68 0.73 0.80 0.82 0.84 0.93 1.00 1.00 1.00 1.01 0.97 0.96 0.95 0.93 0.92 0.95 0.90 0.79 0.63 0.57 0.50 0.45 0.36 0.36
0.28 0.30 0.33 0.35 0.36 0.37 0.37 0.34 0.34 0.35 0.38 0.40 0.40 0.39 0.38 0.39 0.40 0.42 0.42 0.42 0.41 0.40 0.42 0.45 0.66 0.70 0.73 0.77 0.81 0.85 0.86 0.88 0.89 0.92 0.99 0.99 0.92 0.94 0.95 0.91 0.88 0.88 0.84 0.70 0.57 0.49 0.43 0.34 0.34
0.32 0.32 0.31 0.34 0.35 0.36 0.34 0.36 0.38 0.38 0.42 0.41 0.41 0.40 0.41 0.42 0.43 0.45 0.46 0.46 0.46 0.46 0.46 0.48 0.53 0.68 0.76 0.77 0.81 0.85 0.92 0.95 0.97 0.98 0.99 1.01 1.01 1.00 0.97 0.92 0.88 0.84 0.84 0.79 0.67 0.54 0.43 0.33 0.33
0.38 0.32 0.35 0.35 0.36 0.37 0.40 0.35 0.37 0.41 0.43 0.41 0.39 0.40 0.42 0.43 0.45 0.44 0.46 0.47 0.49 0.50 0.51 0.51 0.51 0.65 0.76 0.79 0.83 0.90 0.97 1.02 1.03 1.06 1.09 1.06 1.02 0.99 1.02 0.98 0.92 0.90 0.91 0.85 0.77 0.64 0.51 0.38 0.33
0.36 0.36 0.29 0.36 0.40 0.41 0.39 0.31 0.40 0.45 0.44 0.39 0.39 0.40 0.41 0.43 0.45 0.47 0.49 0.49 0.50 0.51 0.51 0.53 0.56 0.61 0.72 0.82 0.92 0.98 1.03 1.07 1.09 1.12 1.15 1.14 1.12 1.07 0.98 0.96 0.99 0.97 0.95 0.90 0.81 0.70 0.54 0.43 0.35
0.34 0.26 0.29 0.33 0.40 0.38 0.37 0.32 0.40 0.45 0.43 0.41 0.42 0.42 0.43 0.45 0.47 0.49 0.51 0.51 0.52 0.53 0.54 0.54 0.57 0.61 0.71 0.81 0.93 1.04 1.09 1.08 1.09 1.12 1.13 1.15 1.14 1.14 1.06 1.03 1.03 1.04 0.96 0.89 0.83 0.72 0.61 0.48 0.40
0.27 0.27 0.29 0.29 0.36 0.38 0.36 0.36 0.41 0.43 0.42 0.42 0.44 0.46 0.47 0.47 0.48 0.52 0.53 0.54 0.54 0.54 0.54 0.55 0.57 0.61 0.67 0.79 0.87 0.92 0.98 1.03 1.06 1.07 1.08 1.10 1.13 1.16 1.13 1.11 1.10 1.07 0.97 0.89 0.82 0.73 0.66 0.57 0.50
0.36 0.34 0.33 0.37 0.42 0.38 0.37 0.36 0.37 0.41 0.42 0.41 0.44 0.46 0.45 0.45 0.48 0.50 0.51 0.51 0.51 0.51 0.51 0.53 0.54 0.58 0.62 0.65 0.67 0.71 0.76 0.85 0.93 1.00 1.04 1.09 1.13 1.12 1.12 1.13 1.09 1.06 0.98 0.92 0.84 0.78 0.70 0.63 0.59
0.39 0.37 0.36 0.39 0.42 0.38 0.34 0.34 0.39 0.40 0.40 0.41 0.42 0.43 0.44 0.44 0.45 0.46 0.47 0.47 0.47 0.47 0.49 0.51 0.52 0.55 0.58 0.61 0.65 0.70 0.70 0.72 0.80 0.86 0.91 0.95 1.02 1.06 1.04 1.02 1.01 0.99 0.94 0.91 0.86 0.80 0.74 0.70 0.64
0.40 0.37 0.36 0.34 0.36 0.38 0.35 0.31 0.33 0.37 0.40 0.42 0.42 0.44 0.43 0.42 0.43 0.43 0.42 0.43 0.44 0.45 0.47 0.49 0.50 0.52 0.54 0.58 0.62 0.65 0.68 0.69 0.71 0.73 0.76 0.81 0.87 0.91 0.97 0.99 0.97 0.92 0.88 0.83 0.81 0.77 0.71 0.66 0.67
0.36 0.42 0.38 0.36 0.34 0.27 0.35 0.21 0.27 0.32 0.36 0.37 0.40 0.41 0.42 0.42 0.45 0.45 0.44 0.42 0.43 0.45 0.48 0.49 0.50 0.52 0.53 0.54 0.54 0.54 0.54 0.54 0.59 0.62 0.68 0.71 0.73 0.74 0.78 0.82 0.85 0.85 0.84 0.80 0.79 0.78 0.71 0.67 0.61
0.37 0.42 0.39 0.37 0.32 0.29 0.27 0.23 0.25 0.33 0.31 0.37 0.41 0.42 0.43 0.45 0.44 0.45 0.44 0.45 0.45 0.44 0.43 0.44 0.45 0.45 0.48 0.50 0.52 0.52 0.52 0.54 0.56 0.58 0.59 0.60 0.62 0.63 0.64 0.66 0.69 0.72 0.74 0.75 0.75 0.73 0.70 0.68 0.64
0.44 0.39 0.37 0.35 0.31 0.22 0.25 0.24 0.24 0.29 0.33 0.37 0.38 0.40 0.41 0.43 0.44 0.43 0.42 0.42 0.41 0.41 0.41 0.40 0.42 0.42 0.43 0.44 0.44 0.44 0.46 0.47 0.48 0.50 0.51 0.54 0.57 0.58 0.59 0.61 0.62 0.64 0.64 0.65 0.68 0.73 0.71 0.67 0.64
0.39 0.34 0.25 0.21 0.21 0.19 0.28 0.25 0.26 0.34 0.38 0.37 0.36 0.37 0.40 0.43 0.44 0.43 0.42 0.42 0.43 0.43 0.41 0.42 0.43 0.43 0.44 0.43 0.43 0.43 0.40 0.39 0.39 0.41 0.43 0.46 0.47 0.50 0.53 0.56 0.58 0.58 0.60 0.61 0.63 0.64 0.66 0.69 0.66
0.35 0.33 0.24 0.16 0.16 0.18 0.29 0.20 0.24 0.33 0.35 0.36 0.36 0.38 0.41 0.42 0.41 0.41 0.44 0.46 0.46 0.47 0.45 0.44 0.44 0.42 0.43 0.41 0.39 0.40 0.40 0.36 0.35 0.35 0.36 0.37 0.38 0.40 0.42 0.44 0.46 0.51 0.56 0.57 0.58 0.59 0.61 0.62 0.64
0.35 0.31 0.37 0.29 0.29 0.23 0.23 0.25 0.30 0.32 0.31 0.34 0.37 0.38 0.39 0.41 0.41 0.42 0.44 0.46 0.46 0.45 0.42 0.38 0.35 0.34 0.34 0.32 0.30 0.28 0.30 0.32 0.32 0.30 0.30 0.30 0.32 0.34 0.34 0.35 0.36 0.38 0.40 0.42 0.46 0.52 0.54 0.55 0.56
0.37 0.39 0.27 0.30 0.18 0.15 0.16 0.17 0.17 0.23 0.27 0.32 0.34 0.36 0.38 0.40 0.41 0.45 0.47 0.48 0.47 0.43 0.39 0.35 0.31 0.29 0.29 0.28 0.28 0.26 0.24 0.26 0.27 0.27 0.27 0.25 0.26 0.28 0.27 0.26 0.28 0.29 0.30 0.32 0.36 0.37 0.38 0.42 0.51
0.30 0.26 0.28 0.27 0.24 0.16 0.13 0.12 0.24 0.26 0.29 0.30 0.33 0.35 0.36 0.38 0.43 0.44 0.43 0.43 0.38 0.32 0.26 0.23 0.22 0.21 0.21 0.21 0.22 0.24 0.22 0.22 0.25 0.23 0.23 0.23 0.24 0.24 0.24 0.24 0.24 0.25 0.24 0.25 0.26 0.26 0.28 0.31 0.31
0.31 0.27 0.28 0.21 0.19 0.23 0.20 0.12 0.29 0.30 0.33 0.35 0.34 0.35 0.39 0.38 0.35 0.34 0.30 0.29 0.25 0.22 0.21 0.20 0.20 0.20 0.19 0.19 0.20 0.19 0.20 0.21 0.21 0.21 0.21 0.21 0.21 0.21 0.23 0.22 0.21 0.21 0.21 0.22 0.22 0.24 0.24 0.25 0.25
Wind_Speed
3 3 3 5 6 7 5 5 6 6 6 5 5 6 5 5 5 4 5 3 3 1 6 8 8 7 7 7 7 7 8 9 9 10 10 10 9 9 8 8 8 7 7 6 6 6 6 5 5
3 3 4 4 5 5 5 5 5 5 5 5 5 5 5 5 5 5 5 2 2 1 4 7 8 8 8 8 7 7 7 7 8 8 9 9 9 9 9 8 8 7 7 6 6 6 6 6 5
2 2 3 3 4 2 3 5 5 6 5 5 6 4 4 5 5 4 4 2 2 1 2 6 8 8 9 9 9 8 8 7 7 8 8 8 8 8 9 9 8 8 8 8 7 7 7 7 7
2 2 3 3 3 4 3 5 6 4 5 6 6 5 6 6 5 3 3 3 3 2 3 5 7 8 9 10 10 10 10 9 9 8 8 9 9 9 9 9 9 9 8 8 8 8 8 8 8
3 3 4 4 6 6 6 6 5 5 6 7 7 6 8 7 5 4 4 5 4 4 5 6 8 9 9 10 11 12 12 11 11 11 11 10 10 10 10 10 10 10 10 10 9 9 9 9 9
4 4 5 6 7 7 7 6 5 6 7 8 8 8 9 7 6 6 6 7 6 6 7 8 9 10 10 11 11 12 12 13 13 13 13 13 12 11 11 11 11 11 11 11 11 11 10 10 10
5 6 6 8 8 8 7 7 6 7 8 8 8 9 8 7 8 8 8 8 8 8 9 10 11 12 13 13 13 13 13 14 14 14 15 15 15 14 13 12 12 12 12 12 12 12 11 11 11
7 7 9 9 10 9 9 8 7 9 10 10 9 9 10 11 10 10 10 10 10 10 11 11 13 14 14 15 15 15 15 15 15 15 16 16 16 16 16 15 14 14 14 13 13 13 12 12 12
9 9 10 10 8 9 9 9 10 11 12 13 13 12 13 13 11 11 12 12 12 12 13 13 14 15 16 17 17 18 18 18 17 17 17 17 17 17 17 17 16 16 16 15 15 14 14 14 13
10 9 10 8 9 11 12 11 14 13 16 16 16 15 15 14 14 15 15 15 15 15 15 15 15 16 17 18 19 20 20 20 20 19 19 18 18 18 18 18 18 18 18 18 17 16 16 16 16
10 10 10 11 11 13 14 15 14 15 16 16 17 16 17 15 17 17 18 18 18 17 17 17 17 17 18 19 20 21 21 21 22 22 21 21 21 20 20 20 19 19 19 19 19 18 18 18 17
10 13 13 13 14 15 15 15 17 16 16 15 16 16 16 17 17 17 18 18 19 19 19 19 19 19 20 20 20 21 22 23 23 24 23 23 23 23 23 23 22 21 21 21 21 20 20 19 19
13 15 15 16 18 18 18 18 17 17 17 17 17 16 15 15 16 16 16 17 17 18 19 21 21 21 21 21 22 22 23 24 24 25 26 25 25 25 24 25 25 25 24 23 23 23 22 22 21
14 16 18 19 21 20 17 16 13 16 15 18 18 18 17 18 18 18 19 20 20 20 21 21 22 23 23 23 23 24 24 25 25 25 26 27 26 27 27 26 27 27 27 27 26 26 25 25 24
16 17 19 20 16 16 15 16 16 18 19 21 20 19 18 19 18 19 19 19 19 20 20 20 22 23 25 25 26 25 26 26 26 27 27 28 28 28 29 28 28 28 29 28 28 28 28 28 27
18 17 16 15 15 16 15 18 17 21 21 21 19 18 18 18 18 18 18 18 18 19 19 19 19 21 23 25 26 26 26 26 27 28 28 29 30 30 30 31 30 30 30 30 30 30 30 30 30
17 17 17 18 17 17 16 20 22 23 22 20 18 17 16 16 16 16 17 18 18 19 19 19 18 18 20 21 22 24 25 26 27 28 29 30 31 31 32 32 32 32 32 32 33 33 32 32 32
18 18 19 18 18 19 22 25 26 25 19 17 15 15 14 14 16 16 17 18 19 19 18 17 16 16 17 18 20 21 23 25 26 28 29 31 32 33 33 34 34 35 34 34 34 35 35 35 35
19 20 22 21 23 23 24 23 22 21 22 17 16 15 15 15 15 15 15 15 14 14 14 14 15 15 15 16 18 19 20 21 22 24 26 28 29 31 32 33 34 36 37 37 37 37 37 37 36
22 22 23 24 22 21 22 22 23 21 19 18 16 15 14 14 14 14 14 14 14 14 14 14 14 14 15 15 17 18 19 19 20 21 22 23 26 27 29 30 32 33 35 37 38 39 38 39 39
21 20 20 21 19 20 22 24 21 19 16 13 14 13 13 13 13 13 13 14 14 14 14 15 15 15 15 15 16 17 18 19 21 21 23 23 24 25 27 29 31 32 33 34 36 37 38 38 40
20 19 18 18 18 20 19 23 23 19 16 16 14 14 14 14 13 14 14 15 15 15 15 15 16 16 16 17 17 17 18 19 21 22 24 25 25 26 27 27 28 30 32 33 35 37 38 38 39
18 16 17 19 21 22 23 22 24 17 19 17 15 15 15 15 15 15 17 17 17 17 18 18 18 18 18 18 18 19 20 21 23 24 25 26 27 27 28 29 30 31 31 32 34 36 37 39 40
16 17 19 20 20 23 23 19 23 19 18 16 18 17 17 16 17 18 19 18 19 19 20 21 21 22 22 22 22 22 23 24 24 25 26 27 28 29 29 30 31 32 32 33 34 35 37 38 40
18 17 20 21 19 22 19 19 24 23 22 19 18 18 19 19 19 19 20 21 22 23 24 25 25 25 26 25 26 27 27 27 27 28 28 29 30 31 31 32 33 34 35 36 36 36 37 39 40
21 19 18 21 20 22 22 24 24 22 19 16 18 19 20 20 22 22 22 24 25 26 27 28 29 29 30 30 30 31 32 32 31 31 31 32 32 33 34 34 35 35 36 37 38 39 39 40 41
20 21 22 20 23 23 26 25 24 22 20 20 19 20 21 23 24 26 27 28 28 29 31 33 33 34 34 34 35 35 35 36 36 36 36 36 37 37 37 38 38 39 40 40 40 40 41 41 42
22 21 20 22 21 24 25 26 25 23 22 22 23 24 25 27 28 29 30 30 32 34 35 35 35 35 36 37 37 37 38 38 38 39 40 40 41 42 42 43 43 43 43 44 44 44 44 44 44
24 25 24 23 23 23 24 27 25 23 24 25 27 28 29 30 31 32 33 35 36 38 38 38 38 38 39 39 39 40 40 40 40 40 41 42 44 45 46 46 47 47 47 48 48 48 48 48 48
26 25 24 24 26 27 27 34 28 27 27 26 29 32 32 33 35 37 38 39 40 39 39 38 38 39 40 40 41 41 41 41 43 44 45 46 47 47 48 50 50 51 52 52 52 53 53 53 53
Wind_Direction
30 31 58 58 48 52 26 23 32 21 17 16 22 32 26 27 33 18 5 34 22 153 187 189 187 185 183 181 184 191 202 211 217 221 222 224 226 228 230 233 237 242 242 242 239 234 233 231 233
39 61 66 54 51 44 0 1 17 9 11 15 12 17 16 15 11 6 16 1 14 122 191 198 201 201 200 199 200 202 207 211 214 216 220 223 225 228 232 233 234 238 241 239 236 234 232 232 233
37 53 53 29 31 17 360 349 351 352 360 4 0 352 355 346 348 351 351 7 360 227 200 206 209 213 215 216 217 218 218 217 218 221 222 223 226 230 232 233 236 241 241 237 238 238 237 238 241
12 13 11 20 343 337 338 327 333 350 348 351 351 343 330 330 327 327 344 335 317 271 235 222 217 220 223 225 227 227 227 228 228 228 225 228 231 234 236 237 239 245 242 242 243 244 244 245 246
353 341 342 335 315 318 331 331 343 345 334 333 337 330 325 321 321 313 314 321 301 273 251 236 228 228 230 231 232 233 234 235 236 233 236 236 237 238 240 242 244 244 245 245 245 246 248 250 250
325 320 325 308 307 311 315 318 332 334 335 326 328 326 319 313 304 301 301 303 295 277 260 248 238 236 236 237 237 238 239 239 240 240 240 241 242 243 245 247 249 246 247 248 247 249 250 250 249
312 315 294 295 302 305 301 306 313 312 321 320 318 314 311 308 303 298 295 298 290 277 267 256 248 244 242 242 242 242 242 242 243 244 244 244 244 245 247 249 250 248 249 249 251 251 251 249 249
302 304 299 296 302 305 307 305 303 312 312 311 311 306 304 303 295 293 292 290 289 279 271 263 255 250 248 246 245 245 245 245 245 246 246 244 245 247 248 250 251 250 250 250 251 251 250 250 250
298 303 290 288 301 296 305 307 302 306 307 305 302 300 297 296 294 289 288 289 286 282 276 268 261 256 252 251 250 248 248 247 248 248 248 245 246 247 249 250 252 253 252 251 252 252 251 251 252
295 290 280 279 289 296 295 295 298 303 306 300 297 296 296 291 287 284 284 285 284 280 276 271 266 260 257 255 253 251 250 249 249 249 248 247 248 249 250 251 253 253 253 253 253 253 253 254 254
283 277 282 281 285 292 292 295 296 302 301 298 298 297 295 288 286 285 285 283 282 279 276 271 267 263 259 258 256 253 251 250 250 249 248 249 250 251 251 252 253 253 253 252 253 253 253 254 256
280 278 278 284 290 294 293 296 298 293 293 299 301 300 295 293 294 293 290 287 284 282 279 272 266 263 261 259 258 255 251 251 251 250 250 251 252 252 253 254 254 254 253 253 253 253 254 255 257
276 281 281 283 288 287 289 287 289 290 293 301 302 304 300 298 301 299 298 297 294 288 283 276 266 263 262 261 259 257 255 254 253 252 251 252 254 254 255 256 254 254 254 254 254 254 255 256 257
283 283 283 285 285 286 284 290 289 293 297 302 301 302 298 298 300 298 299 295 294 291 287 280 270 263 261 260 260 259 257 257 256 255 253 253 254 255 256 258 255 254 254 255 255 255 255 256 257
284 288 290 287 284 282 283 288 282 289 298 296 299 296 297 299 302 301 298 296 296 293 291 287 275 266 263 262 261 259 258 258 258 257 255 254 255 257 257 258 257 255 255 256 256 256 256 256 257
285 287 288 285 286 287 285 283 287 296 298 295 295 293 297 301 300 301 300 299 298 297 297 292 283 274 267 265 263 261 259 259 259 258 257 257 257 257 259 258 257 256 256 256 257 257 257 257 257
285 281 279 290 286 288 285 287 291 295 294 297 294 294 295 298 303 305 306 304 302 301 299 296 290 281 274 269 265 263 261 261 260 260 260 260 259 259 259 258 258 257 257 258 258 258 257 257 258
277 279 281 281 288 288 286 286 292 294 293 291 290 292 293 296 300 302 306 305 305 304 303 299 295 290 280 273 270 268 266 264 264 263 262 262 261 260 260 260 259 257 258 259 259 258 258 259 259
278 279 281 286 286 288 288 291 293 290 293 292 289 290 290 295 297 303 310 314 315 315 314 311 305 298 289 282 277 275 273 270 268 268 266 264 264 262 261 261 260 259 259 259 259 259 258 259 259
277 280 282 285 286 289 290 290 291 298 296 289 288 290 291 291 295 301 307 314 318 318 319 318 314 309 301 292 285 279 275 276 273 272 271 271 268 266 264 263 262 262 261 260 259 259 260 259 258
273 274 279 281 291 288 294 292 292 298 298 295 295 291 291 292 293 299 305 308 311 314 314 315 314 311 307 300 291 285 281 280 279 278 274 275 273 272 269 266 265 265 263 262 261 260 259 260 258
277 271 275 280 288 286 295 292 294 288 285 292 288 289 287 289 289 294 301 307 308 309 309 311 312 311 308 303 298 294 289 285 283 281 278 276 276 274 273 271 270 268 266 265 264 263 261 261 260
270 274 278 284 285 289 288 290 292 288 286 282 282 287 288 288 289 291 297 299 302 304 308 308 308 309 306 304 301 296 293 289 286 284 282 280 278 277 276 274 271 270 270 269 267 265 264 262 261
275 282 287 288 286 286 282 277 288 282 284 274 279 279 280 281 285 290 293 294 296 298 300 303 303 303 302 301 299 297 295 291 289 286 285 283 280 279 278 275 274 273 272 271 269 268 267 265 264
276 282 285 289 286 279 277 283 279 289 284 272 271 275 276 278 281 284 288 290 292 295 297 298 299 298 297 297 295 294 293 292 290 287 285 283 282 281 281 279 276 274 273 272 272 270 269 267 266
269 266 270 274 279 282 281 279 283 288 287 276 274 274 274 275 278 281 283 286 289 291 294 295 294 294 293 292 291 290 288 287 287 287 286 284 283 281 281 280 279 277 276 275 273 271 270 269 267
273 270 274 275 280 282 277 280 279 278 278 275 271 272 273 275 277 280 283 285 287 290 292 293 292 292 291 289 288 288 286 285 284 284 283 283 282 281 280 279 279 278 277 276 274 272 271 270 269
270 270 277 277 275 274 278 277 273 270 267 268 271 273 276 277 278 281 284 285 287 289 290 290 290 289 289 290 288 286 287 285 283 283 283 283 282 280 280 278 279 278 278 276 275 273 273 272 271
272 272 272 270 266 268 276 277 277 266 266 269 272 276 276 277 279 281 282 284 286 287 287 287 287 288 289 288 288 286 287 286 284 284 284 283 282 280 280 279 278 278 277 276 276 274 273 272 271
270 266 263 266 271 271 271 275 278 274 270 270 274 278 278 279 281 282 282 284 285 285 285 286 287 288 288 288 287 287 286 286 285 285 284 284 283 282 281 280 279 278 277 277 275 274 273 272 272